Weather History for Detroit Metro, MI

Change the Weather History Date:

Sunday, April 20, 2014

  Actual Average Record
Temperature  
Mean Temperature 55 °F 51 °F  
Max Temperature 72 °F 61 °F 82 °F (1985)
Min Temperature 37 °F 41 °F 20 °F (1897)
Degree Days  
Heating Degree Days 10 14  
Month to date heating degree days 347 355  
Since 1 July heating degree days 6716 5770  
Cooling Degree Days 0 0  
Month to date cooling degree days 0 0  
Year to date cooling degree days 0 0  
Growing Degree Days 4 (Base 50)    
Moisture  
Dew Point 32 °F    
Average Humidity 48    
Maximum Humidity 73    
Minimum Humidity 22    
Precipitation  
Precipitation 0.00 in 0.10 in 3.58 in (2000)
Month to date precipitation 1.22 1.93  
Year to date precipitation 8.45 8.19  
Snow  
Snow 0.00 in 0.00 in 1.20 in (1947)
Month to date snowfall 3.2 1.5  
Since 1 July snowfall 94.9 42.3  
Snow Depth 0.00 in    
Sea Level Pressure  
Sea Level Pressure 30.26 in    
Wind  
Wind Speed 4 mph (SSE)    
Max Wind Speed 13 mph    
Max Gust Speed 25 mph    
Visibility 10 miles    
Events      
T = Trace of Precipitation, MM = Missing Value Source: NWS Daily Summary

Daily Weather History Graph

Daily Weather History Graph

Search for Another Location

Airport:

Trip Planner

Search our weather history database for the weather conditions in past years. The results will help you decide how hot, cold, wet, or windy it might be!

Date:

Astronomy

Apr. 20, 2014 Rise Set
Actual Time 6:44 AM EDT 8:20 PM EDT
Civil Twilight 6:15 AM EDT 8:50 PM EDT
Nautical Twilight 5:39 AM EDT 9:25 PM EDT
Astronomical Twilight 5:01 AM EDT 10:04 PM EDT
Moon 1:01 AM EDT (4/20) 11:01 AM EDT (4/20)
Length of Visible Light 14h 34m
Length of Day
13h 35m
Waning Gibbous, 69% of the Moon is Illuminated
Apr 20
Waning Gibbous
Apr 22
Last Quarter
Apr 29
New
May 6
First Quarter
May 14
Full

Hourly Weather History & Observations

Time (EDT) Temp. Windchill Dew Point Humidity Pressure Visibility Wind Dir Wind Speed Gust Speed Precip Events Conditions
12:53 AM 41.0 °F 38.0 °F 28.9 °F 62% 30.38 in 10.0 mi North 4.6 mph - N/A   Scattered Clouds
1:53 AM 42.1 °F - 28.0 °F 58% 30.36 in 10.0 mi Calm Calm - N/A   Scattered Clouds
2:53 AM 41.0 °F - 28.0 °F 60% 30.34 in 10.0 mi Calm Calm - N/A   Mostly Cloudy
3:53 AM 39.9 °F - 28.9 °F 65% 30.34 in 10.0 mi Calm Calm - N/A   Mostly Cloudy
4:53 AM 39.0 °F - 28.9 °F 67% 30.35 in 10.0 mi Calm Calm - N/A   Mostly Cloudy
5:53 AM 37.9 °F - 28.9 °F 70% 30.33 in 10.0 mi Calm Calm - N/A   Mostly Cloudy
6:53 AM 37.0 °F - 28.9 °F 73% 30.34 in 8.0 mi Calm Calm - N/A   Mostly Cloudy
7:53 AM 41.0 °F 39.0 °F 33.1 °F 73% 30.34 in 7.0 mi NNE 3.5 mph - N/A   Mostly Cloudy
8:53 AM 45.0 °F - 33.1 °F 63% 30.34 in 10.0 mi Calm Calm - N/A   Mostly Cloudy
9:53 AM 50.0 °F - 34.0 °F 54% 30.33 in 10.0 mi Calm Calm - N/A   Mostly Cloudy
10:53 AM 55.0 °F - 35.1 °F 47% 30.32 in 10.0 mi SSE 4.6 mph - N/A   Mostly Cloudy
11:53 AM 62.1 °F - 33.1 °F 34% 30.29 in 10.0 mi Variable 6.9 mph - N/A   Mostly Cloudy
12:53 PM 64.9 °F - 30.0 °F 27% 30.27 in 10.0 mi South 3.5 mph - N/A   Mostly Cloudy
1:53 PM 66.9 °F - 28.0 °F 23% 30.24 in 10.0 mi Variable 4.6 mph - N/A   Mostly Cloudy
2:53 PM 69.1 °F - 28.9 °F 22% 30.22 in 10.0 mi Calm Calm - N/A   Mostly Cloudy
3:53 PM 71.1 °F - 30.9 °F 23% 30.20 in 10.0 mi ESE 5.8 mph - N/A   Mostly Cloudy
4:53 PM 71.1 °F - 32.0 °F 24% 30.18 in 10.0 mi SE 6.9 mph - N/A   Mostly Cloudy
5:53 PM 71.1 °F - 35.1 °F 27% 30.17 in 10.0 mi SSE 9.2 mph - N/A   Mostly Cloudy
6:53 PM 69.1 °F - 33.1 °F 26% 30.15 in 10.0 mi SSE 10.4 mph - N/A   Mostly Cloudy
7:53 PM 64.0 °F - 37.0 °F 37% 30.14 in 10.0 mi SSE 9.2 mph - N/A   Overcast
8:53 PM 57.9 °F - 37.0 °F 46% 30.14 in 10.0 mi SSE 8.1 mph - N/A   Mostly Cloudy
9:53 PM 55.0 °F - 36.0 °F 49% 30.15 in 10.0 mi South 5.8 mph - N/A   Mostly Cloudy
10:53 PM 51.1 °F - 34.0 °F 52% 30.14 in 10.0 mi SSE 5.8 mph - N/A   Scattered Clouds
11:53 PM 50.0 °F - 35.1 °F 57% 30.13 in 10.0 mi South 5.8 mph - N/A   Scattered Clouds